AD7L Weather Reports


time (UTC)temp
C
wind
direction
speed
KPH
gust
KPH
rain 1hr
cm
rain 24hr
cm
rain mn
cm
humidity
%
barometer
mb
20260503212704 31 48 0.0 3.2 0.00 0.00 0.00 41 1012.5
20260503210703 31 48 1.6 4.8 0.00 0.00 0.00 40 1012.6
20260503205704 31 48 0.0 4.8 0.00 0.00 0.00 42 1012.7
20260503204704 31 48 1.6 4.8 0.00 0.00 0.00 41 1012.8
20260503203704 31 48 1.6 3.2 0.00 0.00 0.00 40 1012.9
20260503202704 31 48 0.0 4.8 0.00 0.00 0.00 42 1013.1
20260503201704 30 48 0.0 4.8 0.00 0.00 0.00 42 1013.2
20260503200704 30 48 0.0 3.2 0.00 0.00 0.00 43 1013.2
20260503195704 30 48 0.0 4.8 0.00 0.00 0.00 40 1013.3
20260503194703 30 48 0.0 3.2 0.00 0.00 0.00 43 1013.3
20260503193703 30 48 0.0 1.6 0.00 0.00 0.00 43 1013.3
20260503192704 30 48 0.0 3.2 0.00 0.00 0.00 43 1013.4
20260503191704 29 48 0.0 3.2 0.00 0.00 0.00 44 1013.5
20260503190704 28 48 1.6 3.2 0.00 0.00 0.00 45 1013.6
20260503185704 28 48 1.6 4.8 0.00 0.00 0.00 48 1013.6
20260503184704 27 48 1.6 4.8 0.00 0.00 0.00 48 1013.6
20260503183704 26 48 0.0 4.8 0.00 0.00 0.00 51 1013.7
20260503182704 25 48 1.6 4.8 0.00 0.00 0.00 51 1013.7
20260503175703 22 48 1.6 4.8 0.00 0.00 0.00 58 1013.7
20260503174704 21 48 3.2 4.8 0.00 0.00 0.00 62 1013.7
20260503173704 20 48 3.2 8.0 0.00 0.00 0.00 63 1013.7
20260503172703 19 47 3.2 4.8 0.00 0.00 0.00 66 1013.7
20260503171703 18 47 3.2 4.8 0.00 0.00 0.00 67 1013.7
20260503170703 18 47 3.2 8.0 0.00 0.00 0.00 70 1013.6
20260503150704 16 45 3.2 4.8 0.00 0.00 0.00 78 1013.7
20260503130704 15 45 3.2 4.8 0.00 0.00 0.00 76 1013.2
20260503110704 16 45 3.2 4.8 0.00 0.00 0.00 74 1013.4
20260503080703 16 46 1.6 4.8 0.00 0.00 0.00 75 1014.1
20260503070704 16 46 3.2 4.8 0.00 0.00 0.00 75 1014.4
20260503054704 17 324 0.0 1.6 0.00 0.00 0.00 76 1014.4
20260503053704 17 47 0.0 3.2 0.00 0.00 0.00 76 1014.4
20260503052704 17 47 3.2 4.8 0.00 0.00 0.00 76 1014.4
20260503050704 17 48 3.2 4.8 0.00 0.00 0.00 74 1014.3
20260503045704 17 44 3.2 4.8 0.00 0.00 0.00 75 1014.3
20260503043704 16 45 3.2 4.8 0.00 0.00 0.00 78 1014.2
20260503042704 16 45 3.2 3.2 0.00 0.00 0.00 78 1014.4
20260503041704 16 55 1.6 3.2 0.00 0.00 0.00 78 1014.5
20260503040703 17 55 1.6 1.6 0.00 0.00 0.00 77 1014.5
20260503035703 17 55 0.0 1.6 0.00 0.00 0.00 77 1014.3
20260503034703 17 348 0.0 1.6 0.00 0.00 0.00 77 1014.2
20260503033704 16 326 0.0 1.6 0.00 0.00 0.00 78 1014.1
20260503032704 16 314 0.0 1.6 0.00 0.00 0.00 79 1014.1
20260503030704 16 314 0.0 0.0 0.00 0.00 0.00 80 1014.2
20260503025704 15 314 0.0 12.9 0.00 0.00 0.00 82 1014.4
20260503023704 15 174 4.8 25.7 0.00 0.00 0.00 84 1014.2
20260503021704 16 194 8.0 22.5 0.00 0.00 0.00 83 1014.5
20260503020704 16 185 4.8 20.9 0.00 0.00 0.00 82 1014.5
20260503014704 17 196 0.0 3.2 0.00 0.00 0.00 81 1013.7
20260503013704 17 206 0.0 1.6 0.00 0.00 0.00 80 1013.7
20260503012704 18 206 0.0 3.2 0.00 0.00 0.00 76 1013.6
20260503011704 18 209 0.0 3.2 0.00 0.00 0.00 79 1013.7
20260503010704 18 191 0.0 1.6 0.00 0.00 0.00 78 1013.8
20260503005704 19 170 0.0 1.6 0.00 0.00 0.00 76 1013.7
20260503004703 20 341 0.0 1.6 0.00 0.00 0.00 72 1013.5
20260503003704 20 2 0.0 0.0 0.00 0.00 0.00 72 1013.3
20260503002704 20 2 0.0 0.0 0.00 0.00 0.00 72 1013.6
20260503001703 20 2 0.0 0.0 0.00 0.00 0.00 73 1013.5
20260503000704 20 2 0.0 1.6 0.00 0.00 0.00 70 1013.6
20260502235704 20 316 0.0 1.6 0.00 0.00 0.00 70 1013.4
20260502234704 20 349 0.0 1.6 0.00 0.00 0.00 68 1013.7
20260502233703 20 16 0.0 0.0 0.00 0.00 0.00 70 1013.9
20260502231704 20 16 0.0 0.0 0.00 0.00 0.00 69 1014.2
20260502225704 20 16 0.0 0.0 0.00 0.00 0.00 67 1014.4
20260502224705 20 16 0.0 1.6 0.00 0.00 0.00 68 1014.3
20260502223704 20 16 0.0 1.6 0.00 0.00 0.00 70 1014.5
20260502222703 20 16 0.0 0.0 0.00 0.00 0.00 70 1014.6
20260502221704 20 16 0.0 0.0 0.00 0.00 0.00 70 1014.6
20260502220704 20 16 0.0 0.0 0.00 0.00 0.00 70 1014.8
20260502215704 20 16 0.0 0.0 0.00 0.00 0.00 69 1015.0
20260502214704 20 16 0.0 0.0 0.00 0.00 0.00 67 1015.0
20260502213704 21 16 0.0 0.0 0.00 0.00 0.00 67 1015.0